Location: La Tine
(46.4708°N, 7.0525°E)
Time: 07:03:18
(UTC+00:00)

Cosmos 2026 Rocket - Pass Details

Date: 18 September 2020
Orbit: 940 x 1000 km, 82.9° (Epoch: 23 October)

Event Time Altitude Azimuth Distance (km) Brightness Sun altitude
Rises 19:56:25 0° 352° (N) 3,715 7.6 -23.7°
Reaches altitude 10° 19:58:57 10° 354° (N) 2,768 6.8 -24.1°
Maximum altitude 20:05:20 78° 80° (E) 1,027 3.9 -25.1°
Enters shadow 20:06:54 54° 153° (SSE) 1,206 4.1 -25.3°
